GFSSE_850_dewp_102.txt.gz
Dewpoint
12 11 12 11 10 10 10 9 7 3 4 4 2 1 0 1 1 1 2 5 5 5 3 2 4 6 9 9 9 10 10 2 6 8 11 11 10 10 10 10 10 11 11
12 12 11 11 10 10 10 9 8 5 5 4 3 1 1 1 3 1 1 6 5 4 3 1 1 2 3 5 5 4 -3 -5 -3 1 4 5 6 6 7 8 9 9 9
12 12 12 12 11 11 11 11 10 6 5 6 3 2 1 2 1 3 4 4 5 3 3 0 -4 -3 -3 -5 -7 -6 -5 -4 -1 4 -0 -1 5 7 7 4 8 7 8
5 12 12 12 12 10 11 12 10 7 5 6 4 3 7 4 2 4 5 5 4 1 2 -0 -6 -7 -8 -8 -7 -2 2 7 7 9 9 8 8 7 6 6 5 5 5
6 11 13 13 13 11 11 11 12 9 6 7 5 8 7 6 7 6 7 2 5 9 8 -6 -9 -8 -6 -5 -2 6 8 9 10 10 10 9 10 10 5 2 -2 -1 -1
10 11 7 9 11 12 11 11 12 10 7 7 7 8 8 8 6 7 9 4 3 -0 2 -9 -7 -8 -8 -3 5 8 8 8 9 9 9 8 10 4 -4 -10 -11 -11 -10
9 11 5 3 5 10 12 12 11 12 10 8 8 9 6 10 8 8 8 6 3 -6 -7 -8 -10 -11 -10 -2 7 7 7 8 8 8 9 7 2 -1 -8 -13 -14 -14 -13
3 6 2 2 4 6 9 13 12 12 12 9 9 8 6 9 9 10 9 5 -1 -7 -9 -11 -11 -11 -10 -3 5 5 5 6 7 8 7 -4 -7 -9 -13 -13 -13 -11 -9
3 4 3 2 4 5 10 11 12 13 12 12 10 8 7 10 8 10 10 4 -2 -8 -10 -10 -9 -11 -11 -4 2 4 6 6 6 7 2 -7 -9 -7 -7 -7 -8 -10 -11
4 3 4 3 5 5 7 9 9 9 6 10 11 8 6 9 11 9 9 4 -5 -8 -8 -8 -8 -10 -9 -3 2 5 6 6 6 6 0 -7 -9 -1 -4 -8 -5 -11 -12
10 8 8 8 6 7 8 8 9 8 8 8 12 9 10 9 11 10 7 -1 -6 -4 -5 -5 -6 -7 -8 -5 3 5 6 6 6 6 0 -8 2 4 -1 -9 -11 -11 -11
12 12 11 12 10 8 8 8 10 9 8 9 12 8 9 11 10 10 4 -3 -1 -1 -1 -0 -3 -6 -6 -2 5 6 6 6 6 6 -6 -2 -2 2 -9 -10 -10 -10 -10
10 12 11 11 10 8 8 9 8 9 8 9 12 8 10 11 10 8 6 -1 3 2 2 1 -2 -4 -5 0 5 6 6 6 6 5 -6 -5 -6 -8 -10 -10 -9 -9 -9
10 11 12 11 11 8 9 9 10 8 11 12 11 11 12 11 9 9 6 2 4 4 3 2 -0 -3 -4 3 7 7 6 6 7 6 -5 -7 -8 -6 -5 -9 -9 -8 -8
11 11 11 11 12 10 10 9 10 10 9 11 12 11 10 9 8 9 8 7 5 5 4 3 2 6 6 5 7 6 6 6 6 6 -4 -7 -6 -4 -0 -6 -8 -8 -8
11 11 12 11 11 11 11 10 10 11 9 8 9 12 9 8 8 9 8 9 7 6 5 4 7 8 8 7 7 6 6 6 6 6 -2 -4 -3 -2 -2 -2 -8 -7 -7
11 11 11 11 11 11 12 11 11 11 10 9 11 10 9 7 8 9 9 8 8 7 6 5 8 9 8 7 6 7 6 6 6 6 5 0 -4 -3 -0 -1 -6 -6 -7
11 11 11 11 11 11 11 12 12 11 10 9 8 8 8 8 8 9 8 7 7 10 8 7 9 8 7 6 6 6 6 6 7 7 7 4 3 -4 -2 -3 -5 -5 -6
11 11 11 10 10 11 11 11 11 11 11 10 10 9 8 9 9 9 7 8 9 9 9 9 9 8 6 5 5 4 5 6 6 7 7 6 6 5 2 -1 -5 -4 -4
10 10 10 10 10 10 9 10 10 11 11 11 11 10 9 9 9 9 7 9 9 9 8 9 8 7 5 3 3 3 3 4 4 6 6 6 6 6 5 3 3 1 -3
9 9 9 10 10 10 9 9 10 9 11 11 11 10 9 9 10 9 8 9 9 8 8 9 8 6 5 4 3 3 3 3 3 5 5 6 6 6 6 6 3 4 3
9 10 9 10 9 9 9 10 10 9 10 10 11 11 10 9 9 9 9 8 7 9 8 8 7 5 6 5 4 3 4 4 3 3 4 4 6 6 5 5 4 3 2
9 11 9 10 9 9 8 9 10 9 10 10 10 11 10 10 9 9 9 6 6 4 8 8 6 6 6 6 5 4 5 4 4 3 2 0 1 3 3 3 3 3 3
10 11 10 10 9 9 9 9 10 10 10 10 10 10 10 10 10 8 7 4 3 4 7 6 6 7 7 6 5 5 5 6 5 5 4 4 3 1 0 1 1 2 3
10 11 10 11 10 9 9 10 10 10 11 10 10 10 11 10 10 9 7 5 4 7 6 7 6 6 6 7 6 5 6 5 5 5 6 5 5 5 4 3 3 3 3
10 11 10 10 10 9 9 9 10 9 10 10 10 10 10 10 10 8 8 4 7 7 8 5 6 5 5 7 6 5 5 5 4 4 5 6 6 6 6 5 5 5 4

GFSSE_850_dewp_105.txt.gz
Dewpoint
10 8 9 11 10 8 8 8 5 3 4 3 2 2 4 6 6 10 10 9 7 5 5 2 4 9 11 10 11 12 12 9 10 10 11 11 10 11 10 9 10 10 10
12 10 10 11 10 9 9 8 6 3 4 3 2 1 3 3 5 8 6 4 3 4 1 0 3 9 10 9 10 10 5 7 8 9 10 11 11 11 10 10 11 10 10
1 1 7 11 11 10 9 9 8 4 5 4 2 1 2 3 3 3 2 4 4 2 -0 0 2 7 7 7 8 1 -2 1 4 7 6 5 8 8 8 10 10 10 11
2 2 1 7 12 10 10 10 9 6 5 5 3 3 2 4 3 1 4 4 3 2 -1 -2 -1 1 0 -4 -6 -5 -1 1 -0 1 3 8 7 5 9 10 10 8 8
-1 1 2 6 6 11 10 10 10 10 6 6 4 3 4 5 6 5 4 3 1 1 -2 -5 -6 -7 -8 -4 5 9 10 10 9 6 7 7 9 8 9 7 2 3 4
-1 3 5 4 5 5 9 11 11 11 8 7 6 4 3 7 6 8 7 4 0 -2 -3 -9 -8 -7 -5 5 8 9 10 11 10 7 5 6 7 8 -2 -5 -2 0 1
2 1 5 3 4 6 5 10 11 11 10 8 9 5 8 7 7 10 9 7 2 -6 -9 -9 -5 -0 3 7 8 9 9 10 9 7 4 1 5 -2 -10 -6 -3 -3 -2
5 3 3 3 5 5 6 10 12 11 12 10 10 8 9 8 7 10 10 8 0 -8 -9 -7 -6 -1 1 7 8 8 8 8 8 5 5 -4 -8 -10 -9 -10 -10 -12 -12
4 4 3 3 3 6 6 10 13 13 12 12 11 9 11 9 8 5 9 9 -4 -8 -10 -11 -9 1 5 6 7 8 8 7 6 3 -6 -11 -11 -10 -11 -11 -11 -10 -9
4 5 3 3 3 4 5 7 12 13 13 13 12 9 11 10 9 11 9 5 -4 -10 -11 -10 -11 -4 4 5 6 6 7 6 6 -1 -12 -10 -11 -11 -11 -12 -11 -10 -11
8 9 9 7 8 7 6 7 7 9 11 11 12 9 11 10 9 10 10 4 -6 -10 -9 -9 -11 -8 -2 5 6 6 6 6 4 -5 -9 -10 -10 -11 -11 -11 -11 -11 -10
9 10 10 10 10 7 8 8 8 9 11 12 11 8 11 9 6 10 11 4 -7 -8 -8 -10 -10 -8 3 5 6 6 6 5 5 4 -8 -9 -9 -9 -10 -11 -10 -9 -10
10 10 10 11 11 9 9 8 7 8 9 10 10 8 10 10 9 11 10 -0 -6 -7 -7 -8 -8 -6 1 5 6 7 6 6 6 6 -7 -8 -7 -8 -10 -10 -10 -10 -9
9 10 11 11 10 9 8 8 8 9 9 10 9 9 8 11 9 12 8 -3 -4 -4 -4 -6 -7 -5 4 6 6 7 6 6 6 5 -7 -8 -8 -7 -9 -9 -9 -9 -10
10 11 11 11 10 10 8 9 9 10 11 10 10 10 10 9 8 11 4 -2 -2 -1 -1 -4 -5 -3 5 5 5 6 6 6 6 6 -2 -7 -6 -8 -5 -9 -9 -9 -9
10 10 11 10 10 11 9 10 9 9 10 11 10 11 9 8 11 9 3 -0 1 2 1 -2 -4 -2 6 6 6 6 6 6 6 6 1 -6 -7 -4 -6 -9 -9 -8 -8
10 10 11 10 11 12 12 10 10 10 9 11 11 11 10 11 10 8 2 2 3 3 2 -0 1 3 4 6 7 7 7 6 6 5 4 -5 -6 -6 -7 -8 -8 -8 -7
10 11 11 10 11 11 11 11 10 11 10 10 11 10 10 9 8 9 4 3 4 4 3 5 7 8 7 6 5 6 7 6 6 6 5 5 -0 -6 -6 -6 -6 -6 -6
9 10 10 9 11 11 11 11 12 11 11 9 9 11 10 8 8 9 8 6 5 5 4 6 9 8 8 7 6 6 6 6 7 7 6 6 5 3 -0 -6 -6 -5 -5
9 9 9 10 11 10 11 11 11 11 11 9 10 10 10 8 7 7 8 8 6 6 6 8 9 8 8 6 6 6 6 6 6 6 7 7 6 6 4 2 0 -1 -2
8 9 7 9 10 10 11 10 11 11 11 10 10 9 8 8 7 7 8 7 6 7 7 7 9 8 7 5 4 4 4 5 5 6 6 6 7 6 4 3 1 2 2
8 7 5 9 10 10 9 9 8 9 11 11 10 9 9 9 8 8 8 7 8 7 7 8 9 8 6 4 3 3 3 3 3 4 6 6 6 7 5 4 3 2 1
8 3 6 10 9 10 10 8 9 9 9 10 11 11 10 9 9 9 9 8 8 8 9 9 8 7 5 4 4 3 4 4 4 3 4 4 5 6 6 5 3 3 1
6 2 7 11 9 9 10 10 10 9 9 10 10 11 10 10 9 8 9 9 9 9 9 9 8 7 5 5 5 3 4 4 4 4 4 3 2 2 2 3 2 1 1
7 0 6 11 11 9 10 10 9 9 9 9 10 10 10 10 9 10 9 9 9 9 8 7 5 6 6 6 6 5 4 5 6 6 5 5 4 4 4 4 4 3 3
8 1 7 11 10 9 10 10 10 10 10 10 10 10 10 10 10 10 9 9 9 8 7 7 7 7 6 6 5 6 5 5 5 5 5 4 4 5 5 6 6 6 6

GFSSE_850_dewp_108.txt.gz
Dewpoint
8 5 2 9 10 8 6 6 2 2 2 3 5 8 11 12 13 12 10 9 8 8 6 6 8 9 8 9 10 12 10 10 9 10 10 11 11 9 8 8 9 9 9
-1 -2 -0 6 10 8 7 6 3 3 3 3 2 4 9 11 11 11 11 10 8 6 4 5 7 9 9 9 11 12 10 9 9 11 10 10 10 10 10 9 9 10 10
-1 -2 -1 2 10 9 8 7 4 4 4 3 2 6 8 9 10 10 8 6 5 4 2 1 5 9 10 10 11 9 6 9 7 9 10 9 9 10 10 10 10 10 10
-4 -4 -2 2 8 10 9 8 7 4 5 4 3 3 5 6 7 5 3 3 3 3 -0 0 4 10 9 9 9 4 5 7 7 7 7 7 8 9 10 10 10 10 10
-4 -3 -2 -0 4 11 10 9 8 6 5 5 3 3 3 2 0 2 2 3 3 1 -1 1 5 7 6 0 -5 -3 -2 -2 2 1 4 6 6 9 8 9 9 9 9
-3 -2 -1 -0 2 5 10 10 10 8 6 6 5 5 4 1 -1 -2 1 2 2 -0 -2 -1 4 -1 -4 -1 8 5 8 5 1 -1 4 2 6 7 7 4 4 4 6
-3 -2 -0 1 2 4 7 10 11 10 10 8 6 6 4 9 2 -2 -2 2 2 -0 -4 -2 -3 -0 2 7 9 8 8 9 8 5 -1 1 5 6 4 -6 -2 2 -0
-2 -2 2 5 4 6 10 11 12 11 11 9 8 8 7 11 5 -4 3 6 9 -0 -6 -7 -4 6 9 10 9 9 8 9 8 3 -4 -8 -0 -3 -6 -8 -5 -10 -11
-2 -1 1 3 4 5 6 11 13 13 12 12 10 9 7 10 9 1 -1 7 7 -4 -5 -6 3 7 10 11 9 7 8 8 7 3 -5 -9 -8 -8 -12 -13 -11 -11 -11
1 1 2 3 3 4 4 7 11 12 12 12 12 10 9 8 8 5 1 2 2 -5 -5 -2 4 8 9 8 8 8 7 6 4 -4 -8 -10 -10 -10 -11 -9 -11 -12 -8
3 5 7 7 7 4 5 5 8 14 13 13 12 12 10 9 8 7 5 5 -1 -6 -8 -2 6 7 7 8 8 7 6 6 4 -9 -11 -10 -8 -3 -9 -10 -11 -12 -12
5 7 8 9 10 10 9 7 7 11 12 12 12 12 11 10 9 9 11 8 -4 -8 -8 -2 6 6 6 6 7 6 6 5 -2 -9 -9 -9 -8 -9 -9 -12 -12 -11 -11
5 9 9 10 10 10 10 7 9 8 9 9 10 11 11 10 10 9 11 10 -5 -8 -8 -0 5 5 6 6 6 6 5 5 5 2 -9 -9 -10 -10 -11 -11 -11 -11 -11
5 9 10 10 11 10 8 8 8 7 8 9 11 9 11 9 9 11 9 10 -5 -9 -9 -3 3 4 6 6 6 6 5 6 6 5 -7 -9 -11 -12 -12 -11 -10 -10 -10
7 8 10 10 11 10 7 8 8 8 9 9 10 11 9 9 9 10 11 9 -7 -8 -9 -8 -0 2 6 6 7 6 6 6 6 5 -7 -8 -10 -12 -11 -11 -9 -9 -9
8 9 10 11 10 8 10 8 9 9 11 10 10 10 10 8 9 9 10 7 -7 -8 -8 -8 -6 2 5 6 6 7 6 7 6 6 1 -7 -9 -11 -10 -10 -9 -8 -8
7 9 10 9 10 8 11 10 9 10 10 10 10 9 9 7 11 11 11 4 -6 -7 -8 -8 -5 5 6 6 6 6 6 6 6 5 1 -5 -8 -9 -10 -10 -9 -8 -7
7 8 9 10 9 8 10 11 10 9 11 11 11 10 9 9 8 9 11 0 -5 -4 -5 -6 -3 5 6 6 6 6 6 6 6 5 5 -4 -5 -7 -8 -8 -7 -7 -6
5 8 9 10 8 8 11 11 11 10 10 10 11 10 10 9 9 9 11 -1 -3 -0 -1 -4 -2 5 6 6 7 7 6 6 6 6 6 5 2 -1 -5 -6 -5 -5 -5
7 9 10 10 7 8 11 11 11 12 10 11 10 11 10 10 10 8 10 -0 -0 2 0 -2 -3 1 3 4 6 7 6 7 6 7 6 6 6 5 4 2 -2 -3 -3
8 9 9 8 6 9 10 11 11 11 10 11 11 10 10 10 10 9 8 1 2 3 2 1 5 7 8 7 5 6 6 6 6 6 7 6 6 6 6 5 4 2 1
7 9 9 5 6 8 10 10 11 11 11 10 10 10 10 9 9 9 8 3 2 4 3 4 7 8 8 8 5 6 6 6 6 6 6 6 6 7 7 6 5 3 2
8 8 7 4 6 8 10 10 11 11 11 11 11 11 11 10 9 9 8 7 4 5 5 5 8 9 8 7 5 4 4 3 4 5 4 4 6 6 6 6 5 4 2
8 8 4 5 5 9 9 9 9 9 10 11 11 10 11 10 9 8 8 8 9 6 6 6 8 9 8 7 5 3 3 3 4 4 3 4 4 5 4 3 3 3 3
8 8 4 6 7 8 9 9 9 9 9 10 11 11 10 10 10 9 9 8 9 8 7 7 7 9 8 6 4 3 3 4 4 4 4 4 4 4 3 3 3 4 4
8 8 4 6 7 8 9 10 10 10 9 10 9 10 11 10 11 10 8 8 9 8 8 8 9 8 8 6 4 4 4 5 5 5 5 5 5 4 4 4 5 5 5

GFSSE_850_dewp_111.txt.gz
Dewpoint
1 -3 -4 5 8 8 8 7 4 5 9 10 10 11 12 12 11 9 8 9 9 8 7 7 7 7 9 10 9 9 9 11 10 10 10 10 11 10 9 8 7 8 8
-2 -3 -3 2 9 8 7 6 4 5 7 9 10 11 12 12 12 10 9 9 8 8 6 8 8 10 10 8 9 10 8 11 10 10 10 10 11 8 8 8 9 10 9
-2 -3 -3 -1 9 9 7 6 4 5 6 8 9 10 12 12 12 11 10 9 9 7 6 7 7 9 8 8 11 11 9 9 9 9 9 9 9 9 9 9 10 9 9
-1 -2 -3 -1 7 9 8 7 4 4 5 6 9 11 12 13 12 11 10 10 8 6 5 6 7 9 9 10 11 10 8 10 9 8 8 7 9 10 10 9 10 9 9
-1 -2 -2 -1 2 10 9 8 6 4 5 5 6 8 10 10 11 10 9 6 5 5 3 3 7 10 10 10 10 8 9 9 8 8 5 5 8 10 10 9 8 8 9
-4 -3 -1 -0 0 7 10 9 8 7 5 5 5 5 8 9 9 7 4 2 4 3 3 4 6 10 9 9 7 7 8 7 7 4 3 5 4 7 7 2 1 7 7
-4 -3 -2 0 1 4 7 11 10 9 7 6 6 5 5 7 6 7 5 5 2 3 7 2 5 7 5 -1 -3 -2 0 -1 -2 -1 1 4 6 -1 6 -1 1 1 6
-3 -2 -2 1 2 4 6 8 10 11 9 8 9 7 5 4 7 7 6 7 1 4 2 1 3 -1 -4 1 3 7 7 7 4 3 -3 -3 5 8 3 -2 -4 1 -5
-1 -0 -0 1 3 5 7 9 9 11 11 10 10 10 7 7 8 7 8 8 1 10 6 0 -4 -1 4 7 8 8 8 8 5 -3 -6 -0 0 4 0 -6 -4 -11 -6
1 1 1 2 4 5 6 6 10 11 12 12 11 8 6 7 9 8 9 9 2 -2 -1 -1 2 8 7 5 8 9 9 7 1 -1 -5 -6 -4 1 -0 -0 -3 -5 -9
3 2 2 3 4 4 4 5 6 8 13 13 12 10 9 8 9 9 7 8 9 -5 -3 2 8 9 9 8 7 9 7 5 1 -2 -8 -8 -7 2 -3 -2 -7 -7 -7
3 1 3 5 6 7 6 6 6 7 11 13 13 12 10 9 9 9 7 5 9 -4 -2 4 9 10 10 7 9 8 6 5 2 -8 -7 -9 -8 -4 -6 -11 -11 -10 -7
2 2 4 7 9 10 10 10 9 7 9 12 12 12 11 9 10 8 7 6 10 -2 2 8 9 8 7 6 8 5 6 3 -7 -9 -8 -9 -5 -5 -11 -11 -11 -11 -10
2 3 6 8 10 10 11 10 8 7 8 10 12 12 12 10 10 8 7 5 9 -2 4 8 8 6 7 6 6 6 5 5 5 -1 -8 -7 -6 -8 -11 -9 -10 -10 -11
3 4 7 9 11 11 11 10 7 8 9 8 10 12 10 11 10 9 8 2 10 -2 2 8 7 6 6 7 7 6 5 6 6 4 -7 -8 -8 -10 -10 -9 -10 -10 -11
3 3 7 9 11 11 11 9 8 8 7 8 8 9 11 11 10 10 10 6 10 -3 -1 7 6 6 6 6 6 5 6 6 6 5 -5 -6 -8 -11 -10 -10 -9 -9 -9
3 4 6 9 11 11 9 8 9 8 8 9 10 11 10 11 10 10 8 6 10 -5 -6 6 6 6 6 6 6 6 6 6 6 5 4 -4 -8 -10 -10 -10 -9 -9 -8
3 4 7 10 11 10 9 10 9 9 9 9 10 10 11 11 10 10 9 5 10 -5 -7 3 5 5 6 6 6 6 6 6 6 6 5 -1 -6 -8 -9 -9 -9 -9 -8
2 6 8 10 10 10 8 10 11 10 9 11 11 10 10 11 10 10 10 7 10 -4 -7 -3 2 5 6 6 6 6 6 6 6 6 6 -1 2 -2 -6 -7 -7 -7 -6
2 7 9 10 10 9 8 10 10 11 10 10 10 10 10 11 10 9 8 9 10 -5 -7 -6 -1 5 5 6 6 6 6 6 6 6 6 5 4 3 2 -2 -5 -6 -5
6 9 9 10 10 8 7 10 10 10 11 10 11 10 9 10 10 8 9 8 9 -6 -7 -7 -3 4 6 7 7 7 7 7 7 7 7 6 5 4 5 4 2 2 1
7 9 10 9 9 6 7 10 10 11 11 10 11 10 9 9 9 9 8 8 9 -5 -5 -6 -4 5 6 6 7 7 7 7 7 7 7 6 5 5 6 6 6 5 4
8 9 9 8 8 6 9 10 10 11 11 11 10 11 10 10 9 9 8 8 9 -3 -2 -4 -4 2 5 6 6 6 6 6 6 6 6 6 5 5 6 6 5 5 5
9 9 8 8 7 5 9 10 10 11 10 11 11 10 11 10 9 9 10 9 10 -0 0 -1 -3 -2 1 7 7 6 5 4 4 5 5 4 4 3 3 4 4 4 4
10 9 8 8 4 6 9 10 10 10 11 10 10 11 11 10 10 10 9 10 10 3 1 2 1 4 6 7 7 6 5 3 3 3 3 3 3 3 2 4 4 4 4
10 9 8 8 3 7 9 10 9 9 9 11 11 10 10 10 10 10 10 10 9 6 2 3 3 6 9 8 8 6 5 3 4 3 4 4 3 4 4 3 3 3 3